Weather History for Hyderabad, India

Change the Weather History Date:

Wednesday, October 31, 2012

  Actual Average Record
Temperature  
Mean Temperature 76 °F -  
Max Temperature 88 °F 82 °F 88 °F (2012)
Min Temperature 63 °F 64 °F 63 °F (2012)
Cooling Degree Days 10    
Growing Degree Days 26 (Base 50)    
Moisture  
Dew Point 58 °F    
Average Humidity 47    
Maximum Humidity 77    
Minimum Humidity 33    
Precipitation  
Precipitation 0.00 in 0.04 in - ()
Sea Level Pressure  
Sea Level Pressure 29.84 in    
Wind  
Wind Speed 5 mph ()    
Max Wind Speed 12 mph    
Max Gust Speed -    
Visibility 3.5 miles    
Events Rain    
Averages and records for this station are not official NWS values.
T = Trace of Precipitation, MM = Missing Value Source: Averaged Metar Reports

Daily Weather History Graph

Daily Weather History Graph

Search for Another Location

Airport:

Trip Planner

Search our weather history database for the weather conditions in past years. The results will help you decide how hot, cold, wet, or windy it might be!

Date:

Astronomy

Oct. 31, 2012 Rise Set
Actual Time 6:14 AM IST 5:44 PM IST
Civil Twilight 5:51 AM IST 6:07 PM IST
Nautical Twilight 5:26 AM IST 6:32 PM IST
Astronomical Twilight 5:00 AM IST 6:58 PM IST
Moon 6:50 PM IST (10/31) 7:17 AM IST (10/31)
Length of Visible Light 12h 15m
Length of Day
11h 30m
Full, 98% of the Moon is Illuminated
Oct 31
Full
Nov 7
Last Quarter
Nov 14
New
Nov 20
First Quarter
Nov 28
Full

Hourly Weather History & Observations

Time (IST) Temp. Heat Index Dew Point Humidity Pressure Visibility Wind Dir Wind Speed Gust Speed Precip Events Conditions
2:30 AM 66 °F - 57 °F 66% 29.82 in 2 mi NE 2.3 mph - -   Haze
5:30 AM 64 °F - 58 °F 77% 29.83 in 2 mi Calm Calm - -   Haze
6:10 AM 64.4 °F - 50.0 °F 59% 29.92 in 2.5 mi Calm Calm - N/A   Haze
7:10 AM 66.2 °F - 50.0 °F 56% 29.92 in 2.5 mi Calm Calm - N/A   Haze
8:30 AM 75 °F - 57 °F 43% 29.85 in 6 mi East 6.9 mph - -   Scattered Clouds
9:10 AM 77.0 °F - 55.4 °F 47% 29.95 in 3.1 mi NNE 9.2 mph - N/A   Haze
11:30 AM 85 °F - 62 °F 36% 29.78 in 6 mi East 6.9 mph - -   Scattered Clouds
12:10 PM 84.2 °F 84.4 °F 60.8 °F 45% 29.92 in 3.7 mi East 6.9 mph - N/A   Unknown
1:10 PM 86.0 °F 86.1 °F 60.8 °F 43% 29.89 in 3.7 mi ESE 9.2 mph - N/A   Scattered Clouds
2:10 PM 86.0 °F 86.1 °F 60.8 °F 43% 29.86 in 3.7 mi East 9.2 mph - N/A   Scattered Clouds
2:30 PM 87 °F - 62 °F 33% 29.70 in 6 mi East 11.5 mph - -   Partly Cloudy
2:40 PM 87.8 °F 87.1 °F 59.0 °F 38% 29.83 in 3.7 mi ENE 11.5 mph - N/A   Mostly Cloudy
3:10 PM 87.8 °F 86.5 °F 57.2 °F 35% 29.83 in 3.7 mi East 9.2 mph - N/A   Mostly Cloudy
4:10 PM 86.0 °F 84.9 °F 57.2 °F 37% 29.83 in 3.7 mi ENE 9.2 mph - N/A   Mostly Cloudy
5:10 PM 84.2 °F 83.5 °F 57.2 °F 40% 29.83 in 3.7 mi NE 9.2 mph - N/A   Mostly Cloudy
5:30 PM 83 °F - 61 °F 37% 29.72 in 2 mi East 11.5 mph - -   Haze
6:10 PM 82.4 °F 82.5 °F 59.0 °F 45% 29.86 in 3.7 mi ENE 6.9 mph - N/A   Mostly Cloudy
7:10 PM 80.6 °F 81.1 °F 59.0 °F 48% 29.86 in 3.7 mi NE 9.2 mph - N/A   Mostly Cloudy
8:10 PM 78.8 °F - 59.0 °F 51% 29.89 in 3.7 mi NNE 8.1 mph - N/A   Mostly Cloudy
8:30 PM 79 °F - 62 °F 47% 29.79 in 2 mi NE 11.5 mph - -   Haze
11:30 PM 77 °F - 64 °F 54% 29.78 in 2 mi East 5.8 mph - - Rain Light Drizzle